Weather Service Report


681 
ASUS46 KLOX 211312
RWRCA 

SOUTHERN CALIFORNIA WEATHER ROUNDUP
NATIONAL WEATHER SERVICE OXNARD CALIFORNIA
600 AM PDT TUE APR 21 2015

NOTE: "FAIR" INDICATES FEW OR NO CLOUDS BELOW 12,000 FEET WITH NO 
SIGNIFICANT WEATHER AND/OR OBSTRUCTIONS TO VISIBILITY.

  -  STATIONS PRECEEDED BY AN ASTERISK (*) ARE NOT NWS OR FAA 
     STATIONS AND ARE NOT SUBJECT TO NWS AND FAA QUALITY CONTROL.

CAZ041-042-087-211400-
LA AND ORANGE COUNTY COASTAL AREAS

  
CITY           SKY/WX    TMP DP  RH WIND       PRES   REMARKS
L.A. DOWNTOWN  CLOUDY    60  47  61 CALM      29.90R                  
L.A. AIRPORT   CLOUDY    59  47  64 VRB3      29.91R                  
LONG BEACH     CLOUDY    61  47  59 S6        29.90R                  

CITY           SKY/WX    TMP DP  RH WIND       PRES   REMARKS
AVALON           N/A     59 N/A N/A MISG        N/A                   
FULLERTON      CLOUDY    61  32  33 CALM      29.90R                  
*GETTY CENTER    N/A    N/A N/A N/A SW3         N/A                   
HAWTHORNE      CLOUDY    61  46  57 SW3       29.91R                  
*LEO CARRILLO    N/A     57  45  65 N3          N/A                   
*LOS ALAMITOS  CLOUDY    59  48  67 SW2       29.91R                  
*REDONDO BEACH   N/A     58  48  68 CALM      29.90S                  
SANTA ANA      CLOUDY    60  48  64 SW3       29.91R                  
STA MONICA APT CLOUDY    61  49  64 SW5       29.91R                  
*UCLA            N/A     57  48  72 SW7       29.88R                  

$$

CAZ547-548-048-211400-
LA COUNTY VALLEYS AND INLAND EMPIRE

  
CITY           SKY/WX    TMP DP  RH WIND       PRES   REMARKS
BURBANK        CLOUDY    57  48  72 S3        29.89R                  
VAN NUYS       CLOUDY    57  48  72 S3        29.89S                  

CITY           SKY/WX    TMP DP  RH WIND       PRES   REMARKS
CORONA AIRPORT CLOUDY    57  51  80 CALM      29.91R                  
*CHATSWORTH      N/A     56  48  74 E1        29.90R                  
CHINO          CLOUDY    58  48  69 SW3       29.91R                  
*CLAREMONT       N/A     54  50  85 SW2         N/A                   
MARCH AFB      CLOUDY    54  50  85 CALM      29.90R                  
*NORTHRIDGE      N/A     55  46  71 S2          N/A                   
ONTARIO        CLOUDY    57  48  72 W10       29.90R                  
*PASADENA        N/A     57  52  82 N2          N/A                   
RIVERSIDE      CLOUDY    57  50  77 W3        29.90R                  
SAN BERNARDINO NOT AVBL                                               
*SAN RAFAEL HI   N/A     50  49  96 CALM        N/A                   
*SAUGUS          N/A     51  50  96 SW2         N/A                   
*WHITEMAN AP   NOT AVBL                                               
*WHITTIER HILL   N/A     55  51  87 SW2         N/A                   
*WOODLAND HILL   N/A     55  46  71 S1          N/A                   

$$

CAZ054-055-211400-
LA AND SAN BERNARDINO COUNTY MOUNTAINS

  
CITY           SKY/WX    TMP DP  RH WIND       PRES   REMARKS
*ACTON           N/A     47  46  95 SE3         N/A                   
*BIG BEAR AIRP SUNNY     28  18  64 CALM      29.97S                  
*BIG PINES       N/A     42  23  46 CALM        N/A                   
MT WILSON NWS    N/A     46  23  39 MISG        N/A                   
SANDBERG       FOG       41  40  96 SW8       29.89S VSB<1/4          

$$

CAZ028-029-059-060-099-211400-
ANTELOPE VALLEY AND SURROUNDING AREAS

  
CITY           SKY/WX    TMP DP  RH WIND       PRES   REMARKS
LANCASTER      PTCLDY    52  41  66 SW9       29.82R                  
PALMDALE       CLEAR     52  41  66 S14       29.83R                  
*POPPY PARK      N/A     49  44  84 SW23        N/A                   

CITY           SKY/WX    TMP DP  RH WIND       PRES   REMARKS
BARSTOW/DAGGET CLEAR     58  35  42 W9        29.80R                  
BISHOP         CLEAR     47  23  38 NW7       29.86R                  
CHINA LAKE     CLEAR     50  33  52 S6        29.77R                  
EDWARDS AFB    PTCLDY    51  41  68 S10       29.80R                  
MOJAVE         FAIR      54  36  50 CALM      29.81S                  
NEEDLES        CLEAR     66  21  18 CALM      29.77R                  
VICTORVILLE    CLEAR     52  39  62 S10       29.83R                  

$$

CAZ039-040-211400-
VENTURA AND SANTA BARBARA COUNTY COAST

  
CITY           SKY/WX    TMP DP  RH WIND       PRES   REMARKS
CAMARILLO      CLOUDY    58  49  72 E3        29.90R                  
NWS OXNARD       N/A     56  50  81 CALM      29.90R                  
OXNARD AIRPORT CLOUDY    57  50  77 CALM      29.90R                  
*POINT MUGU    MOCLDY    59  52  77 CALM      29.91R                  
SBA APT/GOLETA CLOUDY    57  52  83 E5        29.90R                  
*SANTA BARBARA   N/A     57  50  78 CALM      29.98R                  
*VENTURA         N/A     57  50  77 CALM      29.96R                  

$$

CAZ044-045-211400-
VENTURA COUNTY VALLEYS

  
CITY           SKY/WX    TMP DP  RH WIND       PRES   REMARKS
*SIMI VALLEY     N/A     54  49  83 CALM      29.87R                  
*OJAI            N/A     52  49  90 CALM      29.87R                  
*FILLMORE        N/A     53  49  87 CALM      29.81R                  

$$

CAZ053-211400-
VENTURA COUNTY MOUNTAINS

  
CITY           SKY/WX    TMP DP  RH WIND       PRES   REMARKS
*LOCKWOOD VLY    N/A     36  30  80 MISG        N/A                   
*ROSE VALLEY     N/A     34  36 100 MISG        N/A                   

$$

CAZ034-035-036-211400-
CENTRAL COAST AND SANTA YNEZ VALLEY

  
CITY           SKY/WX    TMP DP  RH WIND       PRES   REMARKS
SAN LUIS OBISP CLOUDY    54  47  77 VRB3      29.91R                  
SANTA MARIA    CLOUDY    55  47  74 CALM      29.92R                  

CITY           SKY/WX    TMP DP  RH WIND       PRES   REMARKS
*CAL POLY SLO    N/A     54  48  82 SE2         N/A                   
*LOMPOC        CLOUDY    55  45  67 CALM      29.92R                  
*PISMO BEACH     N/A     55  49  80 NE3       29.91S                  
*SANTA YNEZ    CLOUDY    52  46  82 W5        29.91R                  

$$

CAZ037-038-051-211400-
SAN LUIS OBISPO COUNTY INTERIOR AND CUYAMA VALLEY

  
CITY           SKY/WX    TMP DP  RH WIND       PRES   REMARKS
*CUYAMA          N/A     46  44  94 CALM      29.81R                  
PASO ROBLES    CLOUDY    52  46  80 SW7       29.89R                  

$$

CAZ032-033-061-211400-
SOUTHERN DESERTS

  
CITY           SKY/WX    TMP DP  RH WIND       PRES   REMARKS
BLYTHE         CLEAR     57  30  35 N6        29.77R                  
IMPERIAL       CLEAR     63  44  50 N3        29.75R                  
PALM SPRINGS   CLEAR     62  47  57 SE7       29.78R                  
THERMAL        CLEAR     63  47  55 NW3       29.75R                  

$$

ELSEWHERE ACROSS THE WESTERN UNITED STATES AND MEXICO

  
CITY           SKY/WX    TMP DP  RH WIND       PRES   REMARKS
DENVER, CO     PTCLDY    40  31  70 SW8       29.93R WCI  34          
GRAND CANYON,  PTCLDY    22  13  68 CALM      30.03R                  
HONOLULU, HI   MOCLDY    73  63  68 NE13G21   30.01F                  
KAHULUI, MAUI  CLEAR     72  63  73 NE10      30.00F                  
LAKE TAHOE, CA CLEAR     31  24  75 S3        29.97S                  
LAS VEGAS, NV  PTCLDY    66  21  18 SW7       29.75R                  
MAMMOTH LAKES, FAIR      34  21  60 N5        30.00R WCI  30          
MEXICO CITY, M MOCLDY    61  55  82 E7        30.30R FOG              
PHOENIX, AZ    PTCLDY    66  27  23 E6        29.83R                  
PORTLAND, OR   PTCLDY    50  45  83 SW3       29.92R                  
RENO, NV       PTCLDY    50  29  44 VRB3      29.90S                  
SALT LAKE CITY PTCLDY    48  30  49 SE12      29.88S                  
SAN DIEGO, CA  CLOUDY    62  45  53 SW5       29.93R                  
SAN FRANCISCO, CLOUDY    54  51  90 SW9       29.87S                  
SAN JOSE, CA   CLOUDY    56  47  71 S6        29.86S                  
SEATTLE, WA    PTCLDY    49  43  80 SE3       29.90R                  
TIJUANA, MEX   MOCLDY    59  45  58 CALM      29.93R                  

$$
  
STATION/POSITION TIME  TEMP    WIND        PRES    VSBY  WAVE
                       AIR SEA DIR/SP/G                  HT/PER
                 (UTC) (F)     (DEG/KT/KT) (MB)    (MI)  (FT/S)
POINT ARGUELLO B NOT AVBL
WEST SANTA BARBA 1300   56 56  340/  8/ 10 1012.3R         5/13
POINT CONCEPTION NOT AVBL
EAST SANTA BARBA NOT AVBL
SANTA MONICA BAY 1300   58 62   CALM  /  2 1012.9R         3/14

Return to Home page


Western Regional Climate Center, wrcc@dri.edu